Regional Weather Roundup
Issued by NWS Charleston, SC

Current Version | Previous Version | Text Only | Print | Product List | Glossary Off
Versions: 1 2 3 4 5 6 7 8 9 10 11 12 13 14 15 16 17 18 19 20 21 22 23 24 25 26 27 28 29 30 31 32 33 34 35 36 37 38 39 40 41 42 43 44 45 46 47 48 49 50

000
ASUS42 KCHS 011427
RWRCHS

REGIONAL WEATHER ROUNDUP
NATIONAL WEATHER SERVICE CHARLESTON SC
1000 AM EDT TUE SEP 01 2015

NOTE: "FAIR" INDICATES FEW OR NO CLOUDS BELOW 12,000 FEET WITH NO
SIGNIFICANT WEATHER AND/OR OBSTRUCTIONS TO VISIBILITY.

NOT ALL STATIONS ARE QUALITY CONTROLLED BY THE NATIONAL
WEATHER SERVICE. USE DATA WITH CAUTION...ESPECIALLY
DEWPOINT OBSERVATIONS.

SCZ027-030-031-034>040-042>050-011500-
...SOUTHEAST SOUTH CAROLINA...

CITY           SKY/WX    TMP DP  RH WIND       PRES   REMARKS
N CHARLESTON   MOSUNNY   82  71  69 N6        30.12F
WATERFRONT PRK   N/A     80  73  79 N7        30.10R
MOUNT PLEASANT FAIR      82  73  74 N6        30.12S
JOHNS ISLAND   FAIR      84  73  70 N6        30.12S HX  91
PINOPOLIS        N/A     82  73  74 VRB2      30.05R
MONCKS CORNER  FAIR      84  72  65 N5        30.12F
SUMMERVILLE    FAIR      81  73  78 NE3       30.13S
BEAUFORT MCAS  MOSUNNY  N/A N/A N/A NE6       30.12S
BEAUFORT ARPT  FAIR      81  73  78 CALM      30.11S
HILTON HEAD IS MOSUNNY   79  73  83 N7        30.13S
WALTERBORO     SUNNY     82  70  65 N5        30.13S
ALLENDALE      FAIR      81  72  74 CALM      30.13S

...SOUTHERN MIDLANDS AND PEE DEE...

CITY           SKY/WX    TMP DP  RH WIND       PRES   REMARKS
GEORGETOWN     NOT AVBL
KINGSTREE      NOT AVBL
ORANGEBURG     SUNNY     83  69  62 VRB3      30.14S
BARNWELL       FAIR      82  72  69 N3        30.14F
AIKEN          FAIR      79  68  69 CALM      30.18S
MANNING        FAIR      81  70  69 NW5       30.13F
COLUMBIA       PTSUNNY   82  71  69 CALM      30.13F
SUMTER         MOSUNNY   81  70  70 NW6       30.12S
FLORENCE       SUNNY     79  71  76 CALM      30.13R
MYRTLE BEACH   SUNNY     81  70  69 CALM      30.14S
N MYRTLE BEACH MOSUNNY   77  72  84 N6        30.12S

$$

GAZ063-065-086>088-099>101-113>116-118-119-134>141-150-011500-
...SOUTHEAST GEORGIA...

CITY           SKY/WX    TMP DP  RH WIND       PRES   REMARKS
SAVANNAH ARPT  PTSUNNY   79  72  79 NE7       30.12S
HUNTER AAF     MOSUNNY   82  78  88 VRB3      30.09S HX  90
FORT STEWART   PTSUNNY   79  72  80 NE1       30.09S
STATESBORO     SUNNY     80  79  95 NE7       30.12F
SYLVANIA       SUNNY     82  75  80 NE3       30.14S
CLAXTON        NOT AVBL

...CSRA...CENTRAL AND FAR SOUTHEAST GEORGIA...

CITY           SKY/WX    TMP DP  RH WIND       PRES   REMARKS
THOMSON        SUNNY     80  73  80 W5        30.20R
AUGUSTA-BUSH   SUNNY     80  71  74 N3        30.13S
AUGUSTA-DANIEL SUNNY    N/A N/A N/A NW5       30.16R
SWAINSBORO     FAIR      82  68  61 CALM      30.14F
VIDALIA        SUNNY     81  73  78 NE6       30.13S
EASTMAN        FAIR      81  77  87 NE3       30.15S
HAZLEHURST     FAIR      84  77  78 N5        30.11R HX  94
ALMA           PTSUNNY   79  75  87 VRB6      30.11S
WAYCROSS       CLOUDY    84  80  89 E5        30.11R THUNDER HX  98
JESUP          CLOUDY    82  77  83 NE5       30.11S HX  91
BAXLEY         CLOUDY    81  77  89 NE3       30.12R
BRUNSWICK      PTSUNNY   77  73  88 N3        30.11S THUNDER
SAINT SIMONS   CLOUDY    79  75  87 N3        30.09R

$$

SCZ027-028-034-036>038-045-046-048>050-GAZ119-141-011500-
...LAKE AND SUPPLEMENTAL COASTAL OBSERVATIONS...

STATION/POSITION TIME  TEMP    WIND        PRES    WAVE   SWELL
                       AIR SEA DIR/SP/G            HT/PER HT/PER/DIR
                 (UTC) (F)     (DEG/KT/KT) (MB)    (FT/S) (FT/S/D)
UPR LAKE MARION  NOT AVBL
WINYAH BAY       1300   76     330/  3     1019.0
LAKE MURRAY      1300   76     280/  3/  4 1020.0R
ACE BASIN NERRS  NOT AVBL
FORT PULASKI     1400   80 83   10/  7/  9 1019.9F
SAPELO ISLAND    1400   80      30/  4     1019.0S

$$

ANZ835-935-AMZ111-154-330-350-352-354-370-450-454-472-011500-
...C-MAN AND BUOY OBSERVATIONS...

STATION/POSITION TIME  TEMP    WIND        PRES    WAVE   SWELL
                       AIR SEA DIR/SP/G            HT/PER HT/PER/DIR
                 (UTC) (F)     (DEG/KT/KT) (MB)    (FT/S) (FT/S/D)
BUOY 41004       1350   81 83  360/  8/  8 1019.2R   3/ 8   3/ 8
BUOY 41008       1350   81 84  130/  6/  8 1019.2R   2/ 8   2/ 90/ 8
FOLLY BEACH CMAN 1400   81     350/  7/  8 1020.1R
CAPERS NEARSHORE 1308   79      10/  6/  8 1019.9R
FRIPP NEARSHORE  1300   80      20/ 10/ 10 1019.3R


STATION/POSITION TIME  TEMP    WIND        PRES    WAVE   SWELL
                       AIR SEA DIR/SP/G            HT/PER HT/PER/DIR
                 (UTC) (F)     (DEG/KT/KT) (MB)    (FT/S) (FT/S/D)
5E ST. MARYS GA  1321      85                N/A     2/ 7
FRYING PAN BUOY  1350   80 81  300/ 12/ 14 1019.7R   2/10   2/120/10
BUOY 41025       1350   79 84   10/  8/ 10 1018.1R   3/ 6   3/170/ 6
CAPE LOOKOUT NC  1400   78     310/  5/  6 1018.9R
BUOY 41002       1350   84 84  240/ 10/ 12 1019.1R   3/ 6   3/200/ 6
BUOY 41010       1320   85 85  160/  4/  6 1019.6R
ST AUGUSTINE FL  1400   80 83  150/  4/  5 1019.6R


$$


USA.gov is the U.S. government's official web portal to all federal, state and local government web resources and services.